Regional Weather Roundup
Issued by NWS

Home | Current Version | Previous Version | Text Only | Print | Product List | Glossary On
Versions: 1 2 3 4 5 6 7 8 9 10 11 12 13 14 15 16 17 18 19 20 21 22 23 24 25 26 27 28 29 30 31 32 33 34 35 36 37 38 39 40 41 42 43 44 45 46 47 48 49 50
970
ASUS44 KFWD 281115
RWRTX
NORTH TEXAS HOURLY WEATHER ROUNDUP
NATIONAL WEATHER SERVICE FORT WORTH TX
600 AM CDT TUE MAR 28 2017

NOTE: "FAIR" INDICATES FEW OR NO CLOUDS BELOW 12,000 FEET WITH NO
SIGNIFICANT WEATHER AND/OR OBSTRUCTIONS TO VISIBILITY.

TXZ118-119-281200-
DALLAS/FORT WORTH METROPLEX

CITY           SKY/WX    TMP DP  RH WIND       PRES   REMARKS
DFW AIRPORT    CLOUDY    63  56  78 NE8       29.85S
DALLAS LOVE    CLOUDY    65  55  70 E10       29.85F
FTW MEACHAM    CLOUDY    64  53  67 NE9       29.84F
DAL-EXECUTIVE  CLOUDY    62  57  83 E6        29.85S
FTW-ALLIANCE   CLOUDY    61  56  83 NE7       29.85F
FTW-NAS-JRB    CLOUDY    64  55  72 E5        29.85S
FTW-SPINKS     CLOUDY    63  56  78 CALM      29.86S
ARLINGTON      CLOUDY    64  55  72 NE7       29.85S
GRAND PRAIRIE  CLOUDY    63  55  73 NE8       29.86F
ADDISON        CLOUDY    61  54  77 E10G18    29.87F
MESQUITE       CLOUDY    62  56  82 E3        29.87S
LANCASTER      CLEAR     58  55  90 CALM      29.87S
$$

TXZ091>094-102>105-117-120-121-131>134-281200-
NORTH CENTRAL TEXAS

CITY           SKY/WX    TMP DP  RH WIND       PRES   REMARKS
SHRMAN/DENISON CLOUDY    55  51  87 NE7       29.91S
GAINESVILLE    CLOUDY    55  51  87 E8        29.91S
BOWIE          CLOUDY    58  55  91 E7        29.87S
BRIDGEPORT     CLOUDY    59  55  85 E7        29.88S
DECATUR        CLOUDY    57  54  89 E10       29.87S
DENTON         CLOUDY    58  54  86 E9        29.87S
MCKINNEY       CLOUDY    58  55  90 NE8       29.88S
BONHAM         CLOUDY    54  52  94 NE5       29.91S
GREENVILLE     CLOUDY    61  54  77 NE5       29.89S
ROCKWALL         N/A     60  56  87 E9        29.87F
TERRELL        MOCLDY    62  56  80 NE7       29.87S
WAXAHACHIE     CLOUDY    60  57  91 E5        29.86F
CLEBURNE       CLOUDY    63  61  94 E9        29.85S
GRANBURY       CLOUDY    65  55  71 E7        29.84F
$$

TXZ083>090-098>101-113>116-127>130-139>142-154-155-281200-
WESTERN NORTH TEXAS

CITY           SKY/WX    TMP DP  RH WIND       PRES   REMARKS
WICHITA FALLS  CLOUDY    55  51  86 E14       29.87R
WF-KICKAPOO    CLOUDY    56  52  88 E9        29.88S
VERNON         CLOUDY    56  46  70 E15       29.86S
ABILENE        CLOUDY    63  61  93 SE12      29.80S
ABILENE-DYESS  CLOUDY    65  61  87 SE8       29.77F
GRAHAM         CLOUDY    62  53  73 E5        29.83R
BRECKENRIDGE   CLOUDY    64  53  66 E13G20    29.81S
CISCO          CLOUDY    61  55  82 SE13      29.82R
RANGER         CLOUDY    61  54  77 E7        29.84R
MINERAL WELLS  CLOUDY    63  53  70 E7        29.82F
STEPHENVILLE   CLOUDY    62  56  81 E7        29.85S
COMANCHE       CLOUDY    61  58  90 E6        29.82S
BROWNWOOD      CLOUDY    68  64  88 SE7       29.80R
COLEMAN        CLEAR     66  62  89 SE10      29.79S
$$

TXZ143>147-156>162-174-175-281200-
CENTRAL TEXAS

CITY           SKY/WX    TMP DP  RH WIND       PRES   REMARKS
WACO           CLOUDY    69  65  86 S14       29.82F
WACO-MCGREGOR  CLOUDY    69  65  86 S9        29.83S
HILLSBORO      CLOUDY    63  60  89 E9        29.85R
CORSICANA      CLOUDY    64  64 100 E5        29.86R
MEXIA          CLOUDY    67  66  99 S12G18    29.84S
HEARNE         CLOUDY    68  68 100 SE6       29.86S
CAMERON        CLOUDY    69  67  93 SE5       29.84S
TEMPLE         CLOUDY    69  66  90 SE14      29.82F
KILLEEN        CLOUDY    67  65  95 SE12      29.80F
KILLEEN-SKYLRK CLOUDY    68  66  93 SE10      29.81F
FORT HOOD      CLOUDY    66  64  94 SE12      29.78F
GATESVILLE     CLOUDY    68  66  94 SE3       29.83F
HAMILTON       CLOUDY    66  66 100 SE9       29.82F
LAMPASAS       CLOUDY    65  65  97 SE3       29.80S FOG
$$

TXZ095>097-106>112-122>126-135>138-148>153-164>167-281200-
EAST TEXAS

CITY           SKY/WX    TMP DP  RH WIND       PRES   REMARKS
PARIS          CLOUDY    55  52  88 E6        29.92S
SULPHUR SPRNGS CLOUDY    60  56  88 E5        29.92R
MOUNT PLEASANT MOCLDY    62  57  85 E5        29.91S
GILMER         CLOUDY    62  58  86 CALM      29.89S
MINEOLA        CLOUDY    63  59  88 CALM      29.88S
TYLER          CLOUDY    66  61  84 CALM      29.87S
LONGVIEW       CLOUDY    66  63  90 E5        29.88S
MARSHALL       CLOUDY    65  60  85 CALM      29.92R
ATHENS         CLOUDY    61  61 100 CALM      29.86R
PALESTINE      CLOUDY    68  68  99 SE5       29.88R FOG
JACKSONVILLE   CLOUDY    67  67  98 S7        29.89S
HENDERSON      CLOUDY    67  66  99 CALM      29.89S
NACOGDOCHES    CLOUDY    66  64  94 SE3       29.87S
LUFKIN         CLOUDY    67  66  97 SE6       29.88S FOG
$$

SUPPLEMENTAL OBSERVATIONS (CENTRAL)

CITY           SKY/WX    TMP DP  RH WIND       PRES   REMARKS
DENISON DAM      N/A     54  50  87 E2          N/A
CADDO GRASSLND   N/A     52  50  93 CALM        N/A
PAT MAYSE LAKE   N/A     52  50  93 N1          N/A
GREENVILLE       N/A     61  55  82 E6          N/A
CEDAR HILL       N/A     63  55  77 E3G14       N/A
ATHENS           N/A     63  59  88 NE1         N/A
MCGREGOR         N/A     70  68  94 S10         N/A
TEMPLE           N/A     68  66  94 SE8         N/A
$$

SUPPLEMENTAL OBSERVATIONS (WEST)

CITY           SKY/WX    TMP DP  RH WIND       PRES   REMARKS
MILLERS CREEK    N/A     61  54  77 E8G16       N/A
POSSUM KINGDOM   N/A     61  52  72 E10         N/A
LBJ GRASSLAND    N/A     57  54  88 NE8         N/A
GRANBURY         N/A     64  55  72 E9          N/A
HAMBY            N/A     63  57  82 E10         N/A
IVIE RESERVOIR   N/A     64  63  94 E8          N/A
COLORADO BEND    N/A     68  63  83 S10         N/A
$$

SUPPLEMENTAL OBSERVATIONS (EAST)

CITY           SKY/WX    TMP DP  RH WIND       PRES   REMARKS
CLARKSVILLE      N/A     55  52  88 NE1         N/A
TEXARKANA        N/A     61  55  82 CALM        N/A
LINDEN           N/A     61  57  88 E2          N/A
GILMER           N/A     63  57  82 E1          N/A
HENDERSON        N/A     68  64  88 SE1         N/A
LUFKIN           N/A     70  66  88 MISG        N/A
N SABINE NF      N/A     64  63  94 MISG        N/A
S SABINE NF      N/A     64  63  94 CALM        N/A
$$

SUPPLEMENTAL OBSERVATIONS ARE A COLLECTION OF AUTOMATED INSTRUMENTS
THAT ARE MAINTAINED BY A VARIETY OF FEDERAL AND STATE AGENCIES.
CERTAIN ELEMENTS...SUCH AS HUMIDITY VALUES AND SUSTAINED WIND
SPEEDS...MAY BE APPROXIMATED.





USA.gov is the U.S. government's official web portal to all federal, state and local government web resources and services.